Home   Weather   May Pen   Past weeks

Flag for Jamaica Past Weather in May Pen, Jamaica — Yesterday and Last 2 Weeks

Now
84 °F

Passing clouds.


Feels Like: 92 °F
Forecast: 71 / 91 °F
Wind: 8 mph from North

Location: Kingston / Norman Manley

Current Time: Sep 25, 2016 at 8:58:11 PM

Latest Report: Sep 25, 2016 at 8:00 PM


Visibility: N/A

Pressure: 29.92 "Hg

Humidity: 74%

Dew Point: 75 °F

Location of May PenLocation

Past Weather in May Pen — Graph

°F

May Pen Temperature Yesterday

Maximum temperature yesterday: 91 °F (at 1:00 PM)
Minimum temperature yesterday: 82 °F (at 2:00 AM)
Average temperature yesterday: 86 °F

High & Low Weather Summary for the Past Weeks

 TemperatureHumidityPressure
High91 °F (Sep 13, 1:00 PM)94% (Sep 17, 7:00 PM)30.04 "Hg (Sep 17, 7:00 PM)
Low79 °F (Sep 11, 6:00 PM)59% (Sep 16, 4:00 PM)29.83 "Hg (Sep 18, 3:00 PM)
Average85 °F73%29.92 "Hg
* Reported Sep 10 7:00 PM — Sep 25 7:00 PM, May Pen, Weather by CustomWeather, © 2016

Note: Actual official high and low records may vary slightly from our data, if they occured in-between our weather recording intervals... More about our weather records

Advertising

May Pen Weather History for the Previous 24 Hours

Scroll right to see more
 ConditionsComfort  
Time TempWeatherWind HumidityBarometerVisibility
7:00 PM
Sun, Sep 25
84 °FPassing clouds.8 mph74%29.92 "HgN/A
6:00 PM86 °FPassing clouds.10 mph70%29.89 "HgN/A
5:00 PM86 °FPartly sunny.15 mph70%29.89 "HgN/A
4:00 PM86 °FPartly sunny.16 mph70%29.86 "HgN/A
3:00 PM86 °FPartly sunny.18 mph75%29.86 "HgN/A
2:00 PM88 °FThunderstorms. Partly sunny.21 mph70%29.89 "HgN/A
1:00 PM91 °FPassing clouds.21 mph63%29.89 "HgN/A
12:00 PM90 °FPassing clouds.18 mph67%29.92 "HgN/A
11:00 AM88 °FPassing clouds.6 mph66%29.95 "HgN/A
10:00 AM88 °FPassing clouds.5 mph62%29.98 "HgN/A
9:00 AM86 °FPassing clouds.7 mph66%29.98 "HgN/A
8:00 AM84 °FPassing clouds.6 mph70%29.95 "HgN/A
7:00 AM82 °FPassing clouds.7 mph74%29.92 "HgN/A
6:00 AM82 °FScattered clouds.7 mph74%29.92 "HgN/A
5:00 AM82 °FPassing clouds.6 mph74%29.92 "HgN/A
4:00 AM82 °FPassing clouds.7 mph66%29.89 "HgN/A
3:00 AM81 °FPassing clouds.7 mph79%29.89 "HgN/A
2:00 AM82 °FPassing clouds.3 mph74%29.92 "HgN/A
1:00 AM82 °FPassing clouds.5 mph84%29.92 "HgN/A
12:00 AM82 °FPassing clouds.5 mph79%29.95 "HgN/A
11:00 PM
Sat, Sep 24
84 °FPassing clouds.6 mph74%29.95 "HgN/A
10:00 PM84 °FPassing clouds.2 mph74%29.95 "HgN/A
9:00 PM84 °FPassing clouds.3 mph74%29.95 "HgN/A
8:00 PM84 °FPassing clouds.5 mph74%29.95 "HgN/A
Weather by CustomWeather, © 2016

See weather overviewHow to use our weather pages